Time,TemperatureF,DewpointF,PressureIn,WindDirection,WindDirectionDegrees,WindSpeedMPH,WindSpeedGustMPH,Humidity,HourlyPrecipIn,Conditions,Clouds,dailyrainin,SoftwareType,DateUTC
2013-04-03 00:00:00,65.0,-99.9,30.00,ESE,120,8.0,-999.0,-999,-99.99,,,-99.99,,2013-04-03 05:00:00,
2013-04-03 00:30:00,65.0,-99.9,29.99,ENE,70,9.0,-999.0,-999,-99.99,,,-99.99,,2013-04-03 05:30:00,
2013-04-03 00:42:00,65.0,-99.9,30.00,ESE,120,8.0,-999.0,-999,-99.99,,,-99.99,,2013-04-03 05:42:00,
2013-04-03 00:53:00,65.0,-99.9,30.00,ESE,120,8.0,-999.0,-999,-99.99,,,-99.99,,2013-04-03 05:53:00,
2013-04-03 01:22:00,65.0,-99.9,29.99,ENE,70,9.0,-999.0,-999,-99.99,,,-99.99,,2013-04-03 06:22:00,
2013-04-03 01:30:00,64.0,-99.9,29.95,ENE,70,14.0,-999.0,-999,-99.99,,,-99.99,,2013-04-03 06:30:00,
2013-04-03 02:00:00,64.0,-99.9,29.96,East,90,10.0,-999.0,-999,-99.99,,,-99.99,,2013-04-03 07:00:00,
2013-04-03 02:23:00,64.0,-99.9,29.95,ENE,70,14.0,-999.0,-999,-99.99,,,-99.99,,2013-04-03 07:23:00,
2013-04-03 02:30:00,64.0,-99.9,29.94,ENE,70,10.0,-999.0,-999,-99.99,,,-99.99,,2013-04-03 07:30:00,
2013-04-03 02:53:00,64.0,-99.9,29.96,East,90,10.0,-999.0,-999,-99.99,,,-99.99,,2013-04-03 07:53:00,
2013-04-03 03:00:00,63.0,-99.9,29.94,East,80,11.0,-999.0,-999,-99.99,,,-99.99,,2013-04-03 08:00:00,
2013-04-03 03:22:00,64.0,-99.9,29.94,ENE,70,10.0,-999.0,-999,-99.99,,,-99.99,,2013-04-03 08:22:00,
2013-04-03 03:30:00,63.0,-99.9,29.91,ENE,70,13.0,-999.0,-999,-99.99,,,-99.99,,2013-04-03 08:30:00,
2013-04-03 03:43:00,63.0,-99.9,29.94,East,80,11.0,-999.0,-999,-99.99,,,-99.99,,2013-04-03 08:43:00,
2013-04-03 03:52:00,63.0,-99.9,29.94,East,80,11.0,-999.0,-999,-99.99,,,-99.99,,2013-04-03 08:52:00,
2013-04-03 04:00:00,64.0,-99.9,29.92,ENE,60,11.0,-999.0,-999,-99.99,,,-99.99,,2013-04-03 09:00:00,
2013-04-03 04:22:00,63.0,-99.9,29.91,ENE,70,13.0,-999.0,-999,-99.99,,,-99.99,,2013-04-03 09:22:00,
2013-04-03 04:30:00,64.0,-99.9,29.92,NE,50,14.0,-999.0,-999,-99.99,,,-99.99,,2013-04-03 09:30:00,
2013-04-03 04:53:00,64.0,-99.9,29.92,ENE,60,11.0,-999.0,-999,-99.99,,,-99.99,,2013-04-03 09:53:00,
2013-04-03 05:00:00,63.0,-99.9,29.93,NE,50,11.0,-999.0,-999,-99.99,,,-99.99,,2013-04-03 10:00:00,
2013-04-03 05:22:00,64.0,-99.9,29.92,NE,50,14.0,-999.0,-999,-99.99,,,-99.99,,2013-04-03 10:22:00,
2013-04-03 05:30:00,63.0,-99.9,29.94,NE,50,13.0,-999.0,-999,-99.99,,,-99.99,,2013-04-03 10:30:00,
2013-04-03 05:43:00,63.0,-99.9,29.93,NE,50,11.0,-999.0,-999,-99.99,,,-99.99,,2013-04-03 10:43:00,
2013-04-03 05:53:00,63.0,-99.9,29.93,NE,50,11.0,-999.0,-999,-99.99,,,-99.99,,2013-04-03 10:53:00,
2013-04-03 06:00:00,63.0,-99.9,29.96,NE,40,15.0,-999.0,-999,-99.99,,,-99.99,,2013-04-03 11:00:00,
2013-04-03 06:23:00,63.0,-99.9,29.94,NE,50,13.0,-999.0,-999,-99.99,,,-99.99,,2013-04-03 11:23:00,
2013-04-03 06:30:00,61.0,-99.9,29.98,North,10,21.0,-999.0,-999,-99.99,,,-99.99,,2013-04-03 11:30:00,
2013-04-03 06:43:00,63.0,-99.9,29.96,NE,40,15.0,-999.0,-999,-99.99,,,-99.99,,2013-04-03 11:43:00,
2013-04-03 06:53:00,63.0,-99.9,29.96,NE,40,15.0,-999.0,-999,-99.99,,,-99.99,,2013-04-03 11:53:00,
2013-04-03 07:00:00,60.0,-99.9,29.99,NNE,20,22.0,-999.0,-999,-99.99,,,-99.99,,2013-04-03 12:00:00,
2013-04-03 07:23:00,61.0,-99.9,29.98,North,10,21.0,-999.0,-999,-99.99,,,-99.99,,2013-04-03 12:23:00,
2013-04-03 07:30:00,60.0,-99.9,30.00,NNE,30,21.0,-999.0,-999,-99.99,,,-99.99,,2013-04-03 12:30:00,
2013-04-03 07:53:00,60.0,-99.9,29.99,NNE,20,22.0,-999.0,-999,-99.99,,,-99.99,,2013-04-03 12:53:00,
2013-04-03 08:00:00,59.0,-99.9,29.99,NNE,30,22.0,-999.0,-999,-99.99,,,-99.99,,2013-04-03 13:00:00,
2013-04-03 08:22:00,60.0,-99.9,30.00,NNE,30,21.0,-999.0,-999,-99.99,,,-99.99,,2013-04-03 13:22:00,
2013-04-03 08:30:00,58.0,-99.9,29.99,NE,40,23.0,-999.0,-999,-99.99,,,-99.99,,2013-04-03 13:30:00,
2013-04-03 08:52:00,59.0,-99.9,29.99,NNE,30,22.0,-999.0,-999,-99.99,,,-99.99,,2013-04-03 13:52:00,
2013-04-03 09:00:00,58.0,-99.9,29.97,NE,50,24.0,-999.0,-999,-99.99,,,-99.99,,2013-04-03 14:00:00,
2013-04-03 09:22:00,58.0,-99.9,29.99,NE,40,23.0,-999.0,-999,-99.99,,,-99.99,,2013-04-03 14:22:00,
2013-04-03 09:30:00,57.0,-99.9,29.98,NE,40,21.0,-999.0,-999,-99.99,,,-99.99,,2013-04-03 14:30:00,
2013-04-03 09:43:00,58.0,-99.9,29.97,NE,50,24.0,-999.0,-999,-99.99,,,-99.99,,2013-04-03 14:43:00,
2013-04-03 09:52:00,58.0,-99.9,29.97,NE,50,24.0,-999.0,-999,-99.99,,,-99.99,,2013-04-03 14:52:00,
2013-04-03 10:00:00,57.0,-99.9,30.00,NE,40,21.0,-999.0,-999,-99.99,,,-99.99,,2013-04-03 15:00:00,
2013-04-03 10:24:00,57.0,-99.9,29.98,NE,40,21.0,-999.0,-999,-99.99,,,-99.99,,2013-04-03 15:24:00,
2013-04-03 10:30:00,57.0,-99.9,30.02,NE,40,17.0,-999.0,-999,-99.99,,,-99.99,,2013-04-03 15:30:00,
2013-04-03 10:43:00,57.0,-99.9,30.00,NE,40,21.0,-999.0,-999,-99.99,,,-99.99,,2013-04-03 15:43:00,
2013-04-03 10:54:00,57.0,-99.9,30.00,NE,40,21.0,-999.0,-999,-99.99,,,-99.99,,2013-04-03 15:54:00,
2013-04-03 11:00:00,57.0,-99.9,30.04,NNE,30,18.0,-999.0,-999,-99.99,,,-99.99,,2013-04-03 16:00:00,
2013-04-03 11:13:00,57.0,-99.9,30.02,NE,40,17.0,-999.0,-999,-99.99,,,-99.99,,2013-04-03 16:13:00,
2013-04-03 11:25:00,57.0,-99.9,30.02,NE,40,17.0,-999.0,-999,-99.99,,,-99.99,,2013-04-03 16:25:00,
2013-04-03 11:30:00,56.0,-99.9,30.04,NNE,20,22.0,-999.0,-999,-99.99,,,-99.99,,2013-04-03 16:30:00,
2013-04-03 11:44:00,57.0,-99.9,30.04,NNE,30,18.0,-999.0,-999,-99.99,,,-99.99,,2013-04-03 16:44:00,
2013-04-03 11:53:00,57.0,-99.9,30.04,NNE,30,18.0,-999.0,-999,-99.99,,,-99.99,,2013-04-03 16:53:00,
2013-04-03 12:00:00,56.0,-99.9,30.04,NNE,20,21.0,-999.0,-999,-99.99,,,-99.99,,2013-04-03 17:00:00,
2013-04-03 12:23:00,56.0,-99.9,30.04,NNE,20,22.0,-999.0,-999,-99.99,,,-99.99,,2013-04-03 17:23:00,
2013-04-03 12:30:00,56.0,-99.9,30.06,NNE,30,18.0,-999.0,-999,-99.99,,,-99.99,,2013-04-03 17:30:00,
2013-04-03 12:47:00,56.0,-99.9,30.04,NNE,20,21.0,-999.0,-999,-99.99,,,-99.99,,2013-04-03 17:47:00,
2013-04-03 12:54:00,56.0,-99.9,30.04,NNE,20,21.0,-999.0,-999,-99.99,,,-99.99,,2013-04-03 17:54:00,
2013-04-03 13:00:00,56.0,-99.9,30.04,ENE,60,18.0,-999.0,-999,-99.99,,,-99.99,,2013-04-03 18:00:00,
2013-04-03 13:23:00,56.0,-99.9,30.06,NNE,30,18.0,-999.0,-999,-99.99,,,-99.99,,2013-04-03 18:23:00,
2013-04-03 13:30:00,56.0,-99.9,29.85,ENE,70,34.0,-999.0,-999,-99.99,,,-99.99,,2013-04-03 18:30:00,
2013-04-03 13:52:00,56.0,-99.9,30.04,ENE,60,18.0,-999.0,-999,-99.99,,,-99.99,,2013-04-03 18:52:00,
2013-04-03 14:00:00,58.0,-99.9,29.72,East,90,43.0,-999.0,-999,-99.99,,,-99.99,,2013-04-03 19:00:00,
2013-04-03 14:22:00,56.0,-99.9,29.85,ENE,70,34.0,-999.0,-999,-99.99,,,-99.99,,2013-04-03 19:22:00,
2013-04-03 14:30:00,60.0,-99.9,29.74,East,100,39.0,-999.0,-999,-99.99,,,-99.99,,2013-04-03 19:30:00,
2013-04-03 14:52:00,58.0,-99.9,29.72,East,90,43.0,-999.0,-999,-99.99,,,-99.99,,2013-04-03 19:52:00,
2013-04-03 15:00:00,61.0,-99.9,29.74,East,100,37.0,-999.0,-999,-99.99,,,-99.99,,2013-04-03 20:00:00,
2013-04-03 15:23:00,60.0,-99.9,29.74,East,100,39.0,-999.0,-999,-99.99,,,-99.99,,2013-04-03 20:23:00,
2013-04-03 15:30:00,62.0,-99.9,29.79,ENE,60,22.0,-999.0,-999,-99.99,,,-99.99,,2013-04-03 20:30:00,
2013-04-03 15:42:00,61.0,-99.9,29.74,East,100,37.0,-999.0,-999,-99.99,,,-99.99,,2013-04-03 20:42:00,
2013-04-03 15:54:00,61.0,-99.9,29.74,East,100,37.0,-999.0,-999,-99.99,,,-99.99,,2013-04-03 20:54:00,
2013-04-03 16:00:00,62.0,-99.9,29.83,ENE,60,16.0,-999.0,-999,-99.99,,,-99.99,,2013-04-03 21:00:00,
2013-04-03 16:22:00,62.0,-99.9,29.79,ENE,60,22.0,-999.0,-999,-99.99,,,-99.99,,2013-04-03 21:22:00,
2013-04-03 16:30:00,62.0,-99.9,29.82,NE,50,14.0,-999.0,-999,-99.99,,,-99.99,,2013-04-03 21:30:00,
2013-04-03 16:42:00,62.0,-99.9,29.83,ENE,60,16.0,-999.0,-999,-99.99,,,-99.99,,2013-04-03 21:42:00,
2013-04-03 16:52:00,62.0,-99.9,29.83,ENE,60,16.0,-999.0,-999,-99.99,,,-99.99,,2013-04-03 21:52:00,
2013-04-03 17:00:00,62.0,-99.9,29.82,NNE,30,15.0,-999.0,-999,-99.99,,,-99.99,,2013-04-03 22:00:00,
2013-04-03 17:13:00,62.0,-99.9,29.82,NE,50,14.0,-999.0,-999,-99.99,,,-99.99,,2013-04-03 22:13:00,
2013-04-03 17:23:00,62.0,-99.9,29.82,NE,50,14.0,-999.0,-999,-99.99,,,-99.99,,2013-04-03 22:23:00,
2013-04-03 17:30:00,62.0,-99.9,29.84,NNE,30,17.0,-999.0,-999,-99.99,,,-99.99,,2013-04-03 22:30:00,
2013-04-03 17:42:00,62.0,-99.9,29.82,NNE,30,15.0,-999.0,-999,-99.99,,,-99.99,,2013-04-03 22:42:00,
2013-04-03 17:53:00,62.0,-99.9,29.82,NNE,30,15.0,-999.0,-999,-99.99,,,-99.99,,2013-04-03 22:53:00,
2013-04-03 18:00:00,62.0,-99.9,29.85,NNE,20,17.0,-999.0,-999,-99.99,,,-99.99,,2013-04-03 23:00:00,
2013-04-03 18:22:00,62.0,-99.9,29.84,NNE,30,17.0,-999.0,-999,-99.99,,,-99.99,,2013-04-03 23:22:00,
2013-04-03 18:30:00,62.0,-99.9,29.87,North,360,18.0,-999.0,-999,-99.99,,,-99.99,,2013-04-03 23:30:00,
2013-04-03 18:43:00,62.0,-99.9,29.85,NNE,20,17.0,-999.0,-999,-99.99,,,-99.99,,2013-04-03 23:43:00,
2013-04-03 18:55:00,62.0,-99.9,29.85,NNE,20,17.0,-999.0,-999,-99.99,,,-99.99,,2013-04-03 23:55:00,
2013-04-03 19:00:00,61.0,-99.9,29.88,North,350,24.0,-999.0,-999,-99.99,,,-99.99,,2013-04-04 00:00:00,
2013-04-03 19:12:00,62.0,-99.9,29.87,North,360,18.0,-999.0,-999,-99.99,,,-99.99,,2013-04-04 00:12:00,
2013-04-03 19:22:00,62.0,-99.9,29.87,North,360,18.0,-999.0,-999,-99.99,,,-99.99,,2013-04-04 00:22:00,
2013-04-03 19:30:00,60.0,-99.9,29.90,North,360,24.0,-999.0,-999,-99.99,,,-99.99,,2013-04-04 00:30:00,
2013-04-03 19:43:00,61.0,-99.9,29.88,North,350,24.0,-999.0,-999,-99.99,,,-99.99,,2013-04-04 00:43:00,
2013-04-03 19:53:00,61.0,-99.9,29.88,North,350,24.0,-999.0,-999,-99.99,,,-99.99,,2013-04-04 00:53:00,
2013-04-03 20:00:00,60.0,-99.9,29.91,North,360,26.0,-999.0,-999,-99.99,,,-99.99,,2013-04-04 01:00:00,
2013-04-03 20:22:00,60.0,-99.9,29.90,North,360,24.0,-999.0,-999,-99.99,,,-99.99,,2013-04-04 01:22:00,
2013-04-03 20:30:00,59.0,-99.9,29.92,North,360,25.0,-999.0,-999,-99.99,,,-99.99,,2013-04-04 01:30:00,
2013-04-03 20:43:00,60.0,-99.9,29.91,North,360,26.0,-999.0,-999,-99.99,,,-99.99,,2013-04-04 01:43:00,
2013-04-03 20:53:00,60.0,-99.9,29.91,North,360,26.0,-999.0,-999,-99.99,,,-99.99,,2013-04-04 01:53:00,
2013-04-03 21:00:00,58.0,-99.9,29.93,North,360,25.0,-999.0,-999,-99.99,,,-99.99,,2013-04-04 02:00:00,
2013-04-03 21:22:00,59.0,-99.9,29.92,North,360,25.0,-999.0,-999,-99.99,,,-99.99,,2013-04-04 02:22:00,
2013-04-03 21:30:00,58.0,-99.9,29.94,North,350,23.0,-999.0,-999,-99.99,,,-99.99,,2013-04-04 02:30:00,
2013-04-03 22:00:00,57.0,-99.9,29.94,North,360,21.0,-999.0,-999,-99.99,,,-99.99,,2013-04-04 03:00:00,
2013-04-03 22:23:00,58.0,-99.9,29.94,North,350,23.0,-999.0,-999,-99.99,,,-99.99,,2013-04-04 03:23:00,
2013-04-03 22:30:00,58.0,-99.9,29.94,North,10,18.0,-999.0,-999,-99.99,,,-99.99,,2013-04-04 03:30:00,
2013-04-03 22:54:00,57.0,-99.9,29.94,North,360,21.0,-999.0,-999,-99.99,,,-99.99,,2013-04-04 03:54:00,
2013-04-03 23:00:00,58.0,-99.9,29.95,North,10,15.0,-999.0,-999,-99.99,,,-99.99,,2013-04-04 04:00:00,
2013-04-03 23:23:00,58.0,-99.9,29.94,North,10,18.0,-999.0,-999,-99.99,,,-99.99,,2013-04-04 04:23:00,
2013-04-03 23:30:00,58.0,-99.9,29.95,NNE,20,13.0,-999.0,-999,-99.99,,,-99.99,,2013-04-04 04:30:00,
2013-04-03 23:43:00,58.0,-99.9,29.95,North,10,15.0,-999.0,-999,-99.99,,,-99.99,,2013-04-04 04:43:00,
2013-04-03 23:53:00,58.0,-99.9,29.95,North,10,15.0,-999.0,-999,-99.99,,,-99.99,,2013-04-04 04:53:00,